• In Uzbekistan
  • List of Countries
  • For 7 days
  • Water Temperature
  • Weather Map
  • Weather Widgets
  • user-avatar
    Login

    Hourly Weather Mingora

    Today, 18 January, Saturday

    Time Temperature Precipitation Wind Pressure Humidity
    00:00 +4°C° 0 mm 2 mps 675 mmHg 49%
    01:00 +4°C° 0 mm 2 mps 675 mmHg 48%
    02:00 +3°C° 0 mm 2 mps 675 mmHg 47%
    03:00 +3°C° 0 mm 2 mps 675 mmHg 46%
    04:00 +3°C° 0 mm 2 mps 675 mmHg 45%
    05:00 +3°C° 0 mm 2 mps 675 mmHg 42%
    06:00 +3°C° 0 mm 2 mps 676 mmHg 42%
    07:00 +3°C° 0 mm 2 mps 676 mmHg 41%
    08:00 +3°C° 0 mm 2 mps 677 mmHg 41%
    09:00 +6°C° 0 mm 2 mps 677 mmHg 37%
    10:00 +9°C° 0 mm 1 mps 677 mmHg 34%
    11:00 +11°C° 0 mm 1 mps 677 mmHg 31%
    12:00 +11°C° 0 mm 1 mps 677 mmHg 30%
    13:00 +12°C° 0 mm 1 mps 676 mmHg 29%
    14:00 +12°C° 0 mm 0 mps 676 mmHg 28%
    15:00 +12°C° 0 mm 1 mps 676 mmHg 33%
    16:00 +10°C° 0 mm 1 mps 676 mmHg 38%
    17:00 +9°C° 0 mm 1 mps 675 mmHg 43%
    18:00 +8°C° 0 mm 1 mps 676 mmHg 45%
    19:00 +6°C° 0 mm 2 mps 676 mmHg 46%
    20:00 +5°C° 0 mm 2 mps 676 mmHg 47%
    21:00 +5°C° 0 mm 2 mps 676 mmHg 46%
    22:00 +4°C° 0 mm 2 mps 676 mmHg 46%
    23:00 +3°C° 0 mm 3 mps 676 mmHg 46%

    Tomorrow, 19 January, Sunday

    Time Temperature Precipitation Wind Pressure Humidity
    00:00 +3°C° 0 mm 3 mps 676 mmHg 44%
    01:00 +2°C° 0 mm 3 mps 676 mmHg 43%
    02:00 +2°C° 0 mm 3 mps 676 mmHg 42%
    03:00 +2°C° 0 mm 3 mps 676 mmHg 41%
    04:00 +2°C° 0 mm 3 mps 676 mmHg 40%
    05:00 +2°C° 0 mm 3 mps 676 mmHg 39%
    06:00 +2°C° 0 mm 3 mps 676 mmHg 38%
    07:00 +2°C° 0 mm 3 mps 677 mmHg 38%
    08:00 +2°C° 0 mm 3 mps 677 mmHg 38%
    09:00 +6°C° 0 mm 2 mps 677 mmHg 34%
    10:00 +8°C° 0 mm 2 mps 677 mmHg 31%
    11:00 +11°C° 0 mm 1 mps 678 mmHg 28%
    12:00 +12°C° 0 mm 1 mps 677 mmHg 28%
    13:00 +12°C° 0 mm 1 mps 677 mmHg 27%
    14:00 +13°C° 0 mm 1 mps 676 mmHg 27%
    15:00 +11°C° 0 mm 1 mps 676 mmHg 33%
    16:00 +10°C° 0 mm 1 mps 675 mmHg 38%
    17:00 +9°C° 0 mm 1 mps 675 mmHg 43%
    18:00 +8°C° 0 mm 1 mps 676 mmHg 43%
    19:00 +6°C° 0 mm 2 mps 676 mmHg 43%
    20:00 +5°C° 0 mm 2 mps 676 mmHg 43%
    21:00 +5°C° 0 mm 2 mps 676 mmHg 42%
    22:00 +5°C° 0 mm 2 mps 676 mmHg 41%
    23:00 +5°C° 0 mm 2 mps 677 mmHg 40%

    Day after tomorrow, 20 January, Monday

    Time Temperature Precipitation Wind Pressure Humidity
    00:00 +5°C° 0 mm 2 mps 676 mmHg 39%
    01:00 +5°C° 0 mm 2 mps 676 mmHg 38%
    02:00 +5°C° 0 mm 2 mps 676 mmHg 38%
    03:00 +5°C° 0 mm 2 mps 675 mmHg 37%
    04:00 +5°C° 0 mm 2 mps 675 mmHg 37%
    05:00 +5°C° 0 mm 2 mps 675 mmHg 36%
    06:00 +5°C° 0 mm 2 mps 675 mmHg 37%
    07:00 +5°C° 0 mm 2 mps 676 mmHg 39%
    08:00 +5°C° 0 mm 2 mps 676 mmHg 40%
    09:00 +7°C° 0 mm 2 mps 676 mmHg 38%
    10:00 +8°C° 0 mm 2 mps 677 mmHg 36%
    11:00 +11°C° 0 mm 1 mps 677 mmHg 34%
    12:00 +11°C° 0 mm 1 mps 676 mmHg 34%
    13:00 +12°C° 0 mm 1 mps 676 mmHg 34%
    14:00 +12°C° 0 mm 1 mps 675 mmHg 34%
    15:00 +11°C° 0 mm 1 mps 675 mmHg 38%
    16:00 +10°C° 0 mm 1 mps 675 mmHg 43%
    17:00 +10°C° 0 mm 1 mps 674 mmHg 47%
    18:00 +9°C° 0 mm 1 mps 675 mmHg 48%
    19:00 +9°C° 0 mm 1 mps 675 mmHg 48%
    20:00 +7°C° 0 mm 2 mps 676 mmHg 48%
    21:00 +7°C° 0 mm 2 mps 676 mmHg 49%
    22:00 +6°C° 0 mm 2 mps 676 mmHg 50%
    23:00 +6°C° 0 mm 2 mps 675 mmHg 52%

    21 January, Tuesday

    Time Temperature Precipitation Wind Pressure Humidity
    00:00 +6°C° 0 mm 2 mps 675 mmHg 52%
    01:00 +6°C° 0 mm 2 mps 675 mmHg 53%
    02:00 +6°C° 0 mm 2 mps 675 mmHg 54%
    03:00 +6°C° 0 mm 1 mps 674 mmHg 60%
    04:00 +6°C° 0 mm 1 mps 674 mmHg 66%
    05:00 +5°C° 0 mm 1 mps 674 mmHg 72%
    06:00 +5°C° 0.3 mm 1 mps 674 mmHg 78%
    07:00 +4°C° 0.3 mm 1 mps 675 mmHg 84%
    08:00 +4°C° 0.3 mm 1 mps 675 mmHg 90%
    09:00 +4°C° 0.6 mm 1 mps 675 mmHg 91%
    10:00 +4°C° 0.6 mm 1 mps 675 mmHg 92%
    11:00 +5°C° 0.6 mm 1 mps 675 mmHg 94%
    12:00 +5°C° 0.8 mm 1 mps 675 mmHg 94%
    13:00 +5°C° 0.8 mm 1 mps 674 mmHg 95%
    14:00 +5°C° 0.8 mm 1 mps 674 mmHg 96%
    15:00 +5°C° 0.4 mm 1 mps 674 mmHg 96%
    16:00 +5°C° 0.4 mm 1 mps 674 mmHg 96%
    17:00 +5°C° 0.4 mm 1 mps 674 mmHg 96%
    18:00 +5°C° 0 mm 1 mps 675 mmHg 94%
    19:00 +4°C° 0 mm 0 mps 676 mmHg 93%
    20:00 +3°C° 0 mm 0 mps 677 mmHg 92%
    21:00 +3°C° 0 mm 0 mps 677 mmHg 91%
    22:00 +3°C° 0 mm 0 mps 677 mmHg 90%
    23:00 +3°C° 0 mm 1 mps 677 mmHg 89%

    22 January, Wednesday

    Time Temperature Precipitation Wind Pressure Humidity
    00:00 +3°C° 0 mm 1 mps 677 mmHg 87%
    01:00 +3°C° 0 mm 1 mps 677 mmHg 86%
    02:00 +3°C° 0 mm 1 mps 678 mmHg 84%
    03:00 +2°C° 0 mm 1 mps 677 mmHg 83%
    04:00 +2°C° 0 mm 1 mps 677 mmHg 81%
    05:00 +1°C° 0 mm 2 mps 677 mmHg 79%
    06:00 +2°C° 0 mm 2 mps 678 mmHg 78%
    07:00 +2°C° 0 mm 2 mps 678 mmHg 76%
    08:00 +2°C° 0 mm 2 mps 679 mmHg 74%
    09:00 +5°C° 0 mm 1 mps 679 mmHg 68%
    10:00 +7°C° 0 mm 1 mps 679 mmHg 63%
    11:00 +9°C° 0 mm 1 mps 680 mmHg 58%
    12:00 +9°C° 0 mm 1 mps 679 mmHg 56%
    13:00 +10°C° 0 mm 1 mps 678 mmHg 54%
    14:00 +11°C° 0 mm 1 mps 678 mmHg 52%
    15:00 +10°C° 0 mm 1 mps 677 mmHg 56%
    16:00 +9°C° 0 mm 1 mps 677 mmHg 60%
    17:00 +7°C° 0 mm 0 mps 677 mmHg 64%
    18:00 +7°C° 0 mm 1 mps 677 mmHg 64%
    19:00 +6°C° 0 mm 1 mps 678 mmHg 64%
    20:00 +4°C° 0 mm 2 mps 678 mmHg 65%
    21:00 +4°C° 0 mm 2 mps 678 mmHg 63%
    22:00 +4°C° 0 mm 2 mps 678 mmHg 62%
    23:00 +4°C° 0 mm 2 mps 678 mmHg 60%

    23 January, Thursday

    Time Temperature Precipitation Wind Pressure Humidity
    00:00 +3°C° 0 mm 2 mps 678 mmHg 57%
    01:00 +3°C° 0 mm 2 mps 678 mmHg 54%
    02:00 +2°C° 0 mm 3 mps 678 mmHg 51%
    03:00 +2°C° 0 mm 3 mps 677 mmHg 50%
    04:00 +2°C° 0 mm 3 mps 677 mmHg 49%
    05:00 +2°C° 0 mm 3 mps 677 mmHg 47%
    06:00 +2°C° 0 mm 3 mps 677 mmHg 46%
    07:00 +2°C° 0 mm 3 mps 677 mmHg 46%
    08:00 +2°C° 0 mm 3 mps 677 mmHg 45%
    09:00 +6°C° 0 mm 2 mps 678 mmHg 41%
    10:00 +8°C° 0 mm 2 mps 678 mmHg 36%
    11:00 +11°C° 0 mm 1 mps 678 mmHg 31%
    12:00 +12°C° 0 mm 1 mps 677 mmHg 30%
    13:00 +13°C° 0 mm 1 mps 677 mmHg 29%
    14:00 +13°C° 0 mm 1 mps 676 mmHg 28%
    15:00 +12°C° 0 mm 1 mps 676 mmHg 34%
    16:00 +11°C° 0 mm 1 mps 676 mmHg 40%
    17:00 +9°C° 0 mm 1 mps 676 mmHg 46%
    18:00 +8°C° 0 mm 1 mps 676 mmHg 46%
    19:00 +6°C° 0 mm 2 mps 676 mmHg 45%
    20:00 +4°C° 0 mm 3 mps 677 mmHg 45%
    21:00 +4°C° 0 mm 3 mps 677 mmHg 43%
    22:00 +4°C° 0 mm 3 mps 677 mmHg 41%
    23:00 +4°C° 0 mm 3 mps 677 mmHg 40%
    Show more